www.pogodaiklimat.ru

Погода и климат >> Архив погоды >> Индия >> Керала >> Кожикоде


ПОГОДА в Кожикоде

  • Прогноз погоды в Кожикоде
  • Монитор погоды в Кожикоде

АРХИВ ПОГОДЫ в Кожикоде

Время (UTC), дата Ветер
(напр.,м/с)
 
Видим.   Явления Облачность Т
(С)
Тd
(С)
f
(%)
Тe
(С)
Тes
(С)
Комфортность P
(гПа)
Po
(гПа)
Тmin
(С)
Tmax
(С)
R
(мм)
R24
(мм)
S
(см)
00 16.08 штиль 0 4000 м в посл. час дождь 10/4 600 м
[Sc diur, vesp Ac As]
+25.0 +25.0 100 +36 +36 очень
душно
1009.8 1009.2 10
03 16.08 штиль 0 4000 м {дождь} 10/5 600 м
[Sc diur, vesp Ac As]
+25.8 -0.1 18 +24 +25 комфорт 1011.0 1010.4 +24.6 +31.2 10
06 16.08 штиль 0 10 км {дождь} 9/4 600 м
[Sc diur, vesp Ac As Ci sp]
+27.8 +25.8 89 +41 +51 опасность
перегрева
1011.2 1010.6 2
09 16.08 С 1 10 км 9/4 600 м
[Sc diur, vesp Ac As Ci sp]
+27.4 +24.5 84 +39 +45 очень
душно
1009.8 1009.2 2
12 16.08 штиль 0 4000 м {дождь} 10/4 600 м
[Sc diur, vesp As op]
+26.6 -0.2 17 +25 +25 комфорт 1008.8 1008.2 +29.3 2
15 16.08 штиль 0 4000 м 10/4 600 м
[Sc diur, vesp Ac As]
+26.0 +24.9 94 +37 +37 очень
душно
1009.8 1009.2 2
18 16.08 штиль 0 4000 м 9/4 600 м
[Sc diur, vesp Ac As Ci sp]
+25.4 +24.2 93 +35 +35 очень
душно
1010.6 1010.0 2
21 16.08 штиль 0 4000 м 9/4 600 м
[Sc diur, vesp Ac As Ci sp]
+25.0 +23.5 91 +34 +34 очень
душно
1008.6 1008.0 2
00 17.08 штиль 0 4000 м слаб. дождь 10/4 600 м
[Sc diur, vesp Ac As]
+25.0 +23.8 93 +34 +34 очень
душно
1008.5 1007.9 2
03 17.08 штиль 0 4000 м {дождь} 9/4 600 м
[Sc diur, vesp Ac As Ci sp]
+25.2 -0.1 19 +24 +27 комфорт 1009.6 1009.0 +24.2 +29.3 3
06 17.08 штиль 0 10 км {дождь} 9/3 600 м
[Sc diur, vesp Ac As Ci sp]
+27.8 +24.9 84 +40 +51 опасность
солнечного
удара
1009.7 1009.1
09 17.08 штиль 0 10 км 9/3 600 м
[Sc diur, vesp Ac As Ci sp]
+29.0 +25.4 81 +43 +52 опасность
перегрева
1008.1 1007.5
12 17.08 штиль 0 10 км 8/3 600 м
[Sc diur, vesp Ac trans Ci sp]
+29.0 -0.1 15 +26 +27 жарко 1007.3 1006.7 +30.2
15 17.08 штиль 0 4000 м слаб. морось 10/3 300 м
[Sc diur, vesp Ac As]
+26.4 +25.0 92 +38 +38 очень
душно
1009.1 1008.5 1
18 17.08 штиль 0 4000 м {морось} 10/3 300 м
[Sc diur, vesp Ac As]
+26.0 +24.9 94 +37 +37 очень
душно
1010.4 1009.8 1
21 17.08 штиль 0 4000 м 9/3 300 м
[Sc diur, vesp Ac trans Ci sp]
+26.0 +24.9 94 +37 +37 очень
душно
1008.9 1008.3 1
00 18.08 штиль 0 4000 м 8/3 300 м
[Sc diur, vesp Ac trans]
+25.0 +23.8 93 +34 +34 очень
душно
1009.1 1008.5 1
03 18.08 штиль 0 10 км 9/3 300 м
[Sc diur, vesp Ac trans Ci sp]
+25.0 -0.1 19 +23 +27 комфорт 1010.4 1009.8 +24.4 +30.2 1
06 18.08 штиль 0 10 км 8/3 600 м
[Sc diur, vesp Ac As Ci sp]
+27.0 +25.6 92 +40 +52 опасность
солнечного
удара
1010.9 1010.3
09 18.08 штиль 0 10 км 6/3 600 м
[Sc diur, vesp Ac As Ci sp]
+29.0 +25.3 80 +42 +54 опасность
перегрева
1008.5 1007.9
12 18.08 штиль 0 10 км 8/3 600 м
[Sc diur, vesp Ac trans Ci sp]
+29.6 -0.1 15 +27 +28 жарко 1007.8 1007.2 +29.8
15 18.08 штиль 0 4000 м {дождь} 8/3 600 м
[Sc diur, vesp Ac trans Ci sp]
+25.6 +24.1 91 +35 +35 очень
душно
1010.3 1009.7 0.2
18 18.08 штиль 0 4000 м {дождь} 6/3 600 м
[Sc diur, vesp Ac trans Ci sp]
+25.0 +23.5 91 +34 +34 очень
душно
1011.7 1011.1 0.2
21 18.08 штиль 0 4000 м 6/3 600 м
[Sc diur, vesp Ac trans Ci sp]
+25.0 +23.1 89 +33 +33 очень
душно
1010.3 1009.7 0.2
00 19.08 штиль 0 4000 м 8/3 600 м
[Sc diur, vesp Ac trans Ci sp]
+24.6 +23.1 91 +33 +33 очень
душно
1009.4 1008.8 0.2
03 19.08 штиль 0 10 км 9/4 600 м
[Sc diur, vesp Ac trans Ci sp]
+26.0 -0.1 18 +24 +27 комфорт 1010.9 1010.3 +24.4 +29.8 0.2
06 19.08 штиль 0 10 км 5/3 600 м
[Sc diur, vesp Ac trans]
+30.2 +24.8 73 +43 +60 опасность
перегрева
1011.5 1010.9
09 19.08 штиль 0 10 км 5/1 600 м
[Sc diur, vesp Ac trans]
+30.6 +24.6 70 +43 +58 опасность
перегрева
1009.0 1008.4
12 19.08 штиль 0 10 км 8/3 600 м
[Sc diur, vesp Ac trans Ci sp]
+30.4 -0.1 14 +27 +28 жарко 1008.6 1008.0 +31.2
15 19.08 штиль 0 4000 м 9/3 300 м
[Sc diur, vesp Ac trans Ci sp]
+28.0 +25.2 85 +41 +41 опасность
перегрева
1010.2 1009.6
21 19.08 штиль 0 4000 м 8/3 300 м
[Sc diur, vesp Ac trans Ci sp]
+26.4 +25.0 92 +38 +38 очень
душно
1010.3 1009.7
00 20.08 штиль 0 4000 м 9/3 300 м
[Cu Sc Ac trans Ci sp]
+25.4 +24.5 95 +36 +36 очень
душно
1009.8 1009.2
03 20.08 штиль 0 10 км 9/3 600 м
[Cu Sc Ac trans Ci sp]
+26.8 -0.1 17 +25 +28 комфорт 1011.6 1011.0 +24.8 +31.2
06 20.08 штиль 0 10 км 4/1 600 м
[Sc diur, vesp Ac trans Ci sp]
+30.0 +25.9 79 +45 +66 опасность
перегрева
1011.8 1011.2
09 20.08 штиль 0 10 км 8/3 600 м
[Sc diur, vesp Ac trans Ci sp]
+30.0 +25.9 79 +45 +55 опасность
перегрева
1009.1 1008.5
12 20.08 штиль 0 10 км 6/3 600 м
[Sc diur, vesp Ac trans Ci sp]
+28.4 +25.0 82 +41 +42 опасность
перегрева
1008.2 1007.6 +31.0
15 20.08 штиль 0 4000 м 5/3 300 м
[Sc diur, vesp Ac trans]
+27.0 +24.7 87 +38 +38 очень
душно
1010.5 1009.9
18 20.08 штиль 0 4000 м 9/3 300 м
[Sc diur, vesp Ac trans Ci sp]
+26.4 +24.4 89 +37 +37 очень
душно
1011.6 1011.0
21 20.08 штиль 0 4000 м слаб. дождь 10/3 300 м
[Sc diur, vesp Ac As]
+25.0 +24.7 98 +35 +35 очень
душно
1009.9 1009.3 10
00 21.08 штиль 0 4000 м в посл. час дождь 9/3 300 м
[Sc diur, vesp Ac trans Ci sp]
+25.0 +24.1 95 +34 +34 очень
душно
1009.5 1008.9 11
03 21.08 штиль 0 10 км слаб. дождь 10/3 300 м
[Sc diur, vesp Ac As]
+26.0 -0.2 18 +24 +26 комфорт 1011.3 1010.7 +24.4 +31.0 16
06 21.08 штиль 0 10 км 5/1 600 м
[Sc diur, vesp Ac trans Ci sp]
+28.4 +25.6 85 +42 +62 опасность
перегрева
1012.0 1011.4
09 21.08 штиль 0 10 км 6/1 600 м
[Sc diur, vesp Ac trans Ci sp]
+29.4 +25.7 81 +44 +58 опасность
перегрева
1009.3 1008.7 0.6
12 21.08 штиль 0 10 км 5/1 600 м
[Sc diur, vesp Ac trans Ci sp]
+28.2 -0.1 16 +26 +27 жарко 1009.2 1008.6 +30.7 0.6
15 21.08 штиль 0 4000 м 6/3 600 м
[Sc diur, vesp Ac trans Ci sp]
+27.0 +24.7 87 +38 +38 очень
душно
1010.6 1010.0 0.6
18 21.08 штиль 0 4000 м 8/3 600 м
[Sc diur, vesp Ac As Ci sp]
+25.4 +23.9 91 +35 +35 очень
душно
1011.5 1010.9 13
21 21.08 штиль 0 2000 м слаб. дождь 10/4 600 м
[Sc diur, vesp Ac As Ci sp]
+24.4 +24.4 100 +34 +34 очень
душно
1009.0 1008.4 21
00 22.08 штиль 0 4000 м слаб. дождь 10/4 600 м
[Sc diur, vesp Ac As Ci sp]
+24.6 +24.6 100 +34 +34 очень
душно
1008.5 1007.9 24
03 22.08 штиль 0 10 км мгла {дождь} 6/3 600 м
[Sc diur, vesp Ac trans Ci sp]
+26.4 -0.1 18 +25 +29 комфорт 1011.3 1010.7 +24.0 +30.7 24
06 22.08 штиль 0 10 км {дождь} 8/3 600 м
[Sc diur, vesp Ac trans Ci sp]
+29.0 +25.6 82 +43 +56 опасность
перегрева
1011.1 1010.5
09 22.08 штиль 0 10 км 9/3 600 м
[Sc diur, vesp Ac trans Ci sp]
+29.4 +25.7 81 +44 +53 опасность
перегрева
1009.3 1008.7
12 22.08 штиль 0 10 км 10/3 600 м
[Cu Sc Ac As]
+28.4 -0.2 16 +26 +26 жарко 1009.0 1008.4 +30.4
15 22.08 штиль 0 4000 м в посл. час морось 9/3 300 м
[Sc diur, vesp Ac trans Ci sp]
+26.0 +24.5 91 +36 +36 очень
душно
1010.2 1009.6 0.2
18 22.08 штиль 0 50 км в посл. час дождь ?/? +25.8 +24.6 93 +36 +36 очень
душно
1012.2 1011.6 7
21 22.08 штиль 0 4000 м в посл. час дождь 10/4 300 м
[Sc diur, vesp Ac As]
+25.6 +24.7 95 +36 +36 очень
душно
1010.7 1010.1 11

 

Местоположение метеостанции Кожикоде (Керала, Индия): широта 11.25 долгота 75.78 высота над уровнем моря 5 м.

В архиве по умолчанию представлена погода в Кожикоде за последнюю неделю. Архивные данные за месяц целиком и за предыдущие месяцы, начиная с января 2011 года, Вы можете получить, выбрав интересующий диапазон дат из раскрывающегося списка и нажав кнопку "Ввод!".


*Определитесь, кто Вы:
робот инопланетянин человек

Внимание! Время в таблицах - всемирное. Для получения местного времени необходимо прибавить поправку, которая равна 5.5 ч.

Смотрите также архив погоды в соседних городах и на ближайших метеорологических станциях:

Погода в Карипере (Керала, Индия) (23 км)
Погода в Каннаноре (Керала, Индия) (81 км)
Погода в Триссуре (Керала, Индия) (94 км)
Погода в Удагамандаламе (Тамилнад, Индия) (105 км)
Погода в Палаккаде (Керала, Индия) (109 км)
Погода в Кунуре (Тамилнад, Индия) (112 км)
Погода в Мадикери (Карнатака, Индия) (130 км)
Погода в Коти (Керала, Индия) (140 км)
Погода в Коимбатуре (Тамилнад, Индия) (141 км)
Погода в Чамраджнагаре (Карнатака, Индия) (146 км)

Пояснения к столбцам:

Ветер - указаны скорость ветра в м/с - средняя за 10 мин, порывы в срок и между сроками (в фигурных скобках) и направление, откуда дует ветер: С - северный, СВ - северо-восточный, В - восточный, ЮВ - юго-восточный, Ю - южный, ЮЗ - юго-западный, З - западный, СЗ - северо-западный.
Видимость - горизонтальная дальность видимости в метрах или километрах. При видимости от 1 до 10 км при отсутствии осадков обычно наблюдается дымка, при ухудшении видимости до 1 км и менее - туман. В сухую погоду видимость может ухудшаться дымом, пылью или мглою.
Явления - указаны атмосферные явления, наблюдавшиеся в срок или в последний час перед сроком; фигурными скобками обозначены явления, наблюдавшиеся между сроками (за 1-3 часа до срока); квадратными скобками обозначены град или гололедные отложения с указанием их диаметра в мм.
Облачность - указаны через наклонную черту общая и нижняя облачность в баллах и высота нижней границы облаков в метрах; квадратными скобками обозначены формы облаков: Ci - перистые, Cs - перисто-слоистые, Cc - перисто-кучевые, Ac - высококучевые, As - высокослоистые, Sc - слоисто-кучевые, Ns - слоисто-дождевые, Cu - кучевые, Cb - кучево-дождевые. Подробнее классификацию облаков см. в Атласе облаков (PDF).
T - Температура воздуха - температура, измеренная на высоте 2 м над землей.
Td - Температура точки росы - температура, при понижении до которой содержащийся в воздухе водяной пар достигнет насыщения.
f - Относительная влажность воздуха - влажноcть воздуха, измеренная на высоте 2 м над землей.
Te - Эффективная температура - температура, которую ощущает одетый по сезону человек в тени. Характеристика душности погоды. При расчете учитывается влияние влажности воздуха и скорости ветра на теплоощущения человека.
Tes - Эффективная температура на солнце - температура, которую ощущает человек, с поправкой на солнечный нагрев. Характеристика знойности погоды. Зависит от высоты солнца над горизонтом, облачности и скорости ветра. Ночью, в пасмурную погоду, а также при ветре 12 м/с и более поправка равна нулю.
P - Атмосферное давление - приведенное к уровню моря атмосферное давление.
Po - Атмосферное давление - измеренное на уровне метеостанции атмосферное давление.
Tmin - Минимальная температура - минимум температуры воздуха на высоте 2 м над землей.
Tmax - Максимальная температура - максимум температуры воздуха на высоте 2 м над землей.
R - Количество осадков - Количество выпавших осадков за период времени, мм. При наведении курсора мыши на число - период времени, за который выпало указанное количество осадков.
R24 - Количество осадков - Количество выпавших осадков за 24 часа, мм.
S - Снежный покров - Высота снежного покрова, см. При наведении курсора мыши на число - состояние снежного покрова и степень покрытия местности в баллах.